[[{"header":{"parameterUnit":"m.s-1","parameterCategory":1,"la1":30.2991,"la2":30.254,"lo1":-89.0895,"lo2":-89.0444,"dy":0.0017,"dx":0.0017,"nx":28,"ny":28,"refTime":"2025-04-18T21:00:00:Z","depth":0,"parameterNumber":2,"parameterNumberName":"U-component_of_WINDS"},"data":[0,0,0,0,0,0,0,0,0,0,0,0,0,0,0,0,0,0,0,0,0,0,0,0,0,0,0,0,0,0,0,0,0,0,0,0,0,0,0,0,0,0,0,0,0,0,0,0,0,0,0,0,0,0,0,0,0,0,-2.7811,-2.7812,0,-2.7879,-2.788,-2.788,-2.7894,-2.7893,-2.7893,-2.7892,-2.7963,-2.7965,-2.7967,0,0,0,0,0,0,0,0,0,0,0,0,0,-2.7694,-2.7696,-2.7811,-2.7812,-2.7813,-2.7879,-2.788,-2.788,-2.7894,-2.7893,-2.7892,-2.7892,-2.7962,-2.7965,-2.7968,0,0,0,0,0,0,0,0,0,0,0,0,0,-2.7752,-2.7697,-2.7811,-2.7827,-2.7829,-2.7878,-2.788,-2.7881,-2.7894,-2.7893,-2.7892,-2.7891,-2.7961,-2.7964,-2.7968,-2.8006,0,0,-2.7979,-2.798,0,0,0,0,0,0,0,0,-2.7749,-2.7756,-2.7824,-2.7826,-2.7828,-2.7877,-2.7864,-2.7923,-2.7894,-2.7869,-2.7892,-2.7891,-2.7935,-2.794,-2.7955,-2.8009,-2.8012,-2.7979,-2.7981,-2.7983,-2.7984,0,0,0,0,0,0,0,-2.7745,-2.7753,-2.7838,-2.7825,-2.7828,-2.7832,-2.7839,-2.7876,-2.7906,-2.7871,-2.7873,-2.788,-2.7936,-2.7952,-2.7957,-2.8013,-2.7979,-2.7982,-2.7984,-2.7986,-2.8103,-2.8104,0,0,0,0,0,0,-2.7737,-2.775,-2.7836,-2.784,-2.7786,-2.7834,-2.7842,-2.7862,-2.7905,-2.7911,-2.7881,-2.7881,-2.7946,-2.7953,-2.7959,-2.8007,-2.7983,-2.7986,-2.7988,-2.8102,-2.8103,-2.8104,0,0,0,0,0,0,-2.7735,-2.7745,-2.7833,-2.7795,-2.7807,-2.7837,-2.7859,-2.7864,-2.7879,-2.7913,-2.7918,-2.7891,-2.7945,-2.7954,-2.7994,-2.8009,-2.7988,-2.7991,-2.8101,-2.8102,-2.8104,-2.8101,0,0,0,0,0,0,-2.7732,-2.7744,-2.7758,-2.7795,-2.7809,-2.7866,-2.786,-2.7866,-2.7885,-2.7886,-2.7924,-2.7929,-2.7946,-2.7989,-2.7998,-2.8014,-2.7994,-2.8099,-2.8101,-2.8103,-2.81,-2.8103,-2.8105,0,0,0,0,0,-2.7727,-2.7755,-2.7759,-2.7769,-2.7827,-2.7867,-2.7875,-2.7892,-2.7887,-2.7901,-2.7923,-2.7928,-2.8006,-2.7993,-2.8003,-2.802,-2.8099,-2.8101,-2.8103,-2.8099,-2.8102,-2.8104,0,0,0,0,0,0,-2.7719,-2.776,-2.7765,-2.7805,-2.7833,-2.7869,-2.7888,-2.7895,-2.7924,-2.7923,-2.7945,-2.7953,-2.7992,-2.8011,-2.7995,-2.806,-2.8052,-2.8057,-2.8046,-2.8049,-2.8051,-2.8045,-2.7997,0,0,0,0,0,-2.7722,-2.7751,-2.7785,-2.7818,-2.7831,-2.7857,-2.7875,-2.7887,-2.7916,-2.7928,-2.7952,-2.798,-2.8011,-2.8031,-2.8062,-2.8103,-2.8112,-2.812,-2.8123,-2.8124,-2.8127,-2.8151,-2.8155,-2.8111,-2.8111,-2.8111,0,0,-2.7729,-2.7755,-2.7771,-2.7817,-2.7839,-2.7869,-2.7867,-2.7898,-2.792,-2.7933,-2.7971,-2.799,-2.8024,-2.8065,-2.8084,-2.8081,-2.8142,-2.8127,-2.8128,-2.813,-2.8153,-2.8158,-2.8161,-2.8113,-2.8112,-2.8112,0,0,-2.7755,-2.7777,-2.7807,-2.7829,-2.7863,-2.7881,-2.7888,-2.7924,-2.7936,-2.7976,-2.7986,-2.8013,-2.8066,-2.8089,-2.8108,-2.8144,-2.815,-2.8154,-2.8165,-2.8187,-2.8191,-2.8194,-2.8206,-2.8211,-2.8157,-2.8157,-2.8157,0,-2.7758,-2.7803,-2.7821,-2.7852,-2.7872,-2.7885,-2.7915,-2.7936,-2.7978,-2.7992,-2.7988,-2.8055,-2.8079,-2.8125,-2.8134,-2.8149,-2.8158,-2.8149,-2.8189,-2.8192,-2.8195,-2.8208,-2.8212,-2.8157,-2.8157,-2.8157,-2.8157,0,-2.7805,-2.7836,-2.7856,-2.7896,-2.7918,-2.7949,-2.7972,-2.7993,-2.8003,-2.8021,-2.8061,-2.809,-2.8126,-2.8138,-2.8149,-2.8187,-2.8184,-2.8184,-2.8177,-2.8199,-2.8211,-2.8216,-2.8157,-2.8157,-2.8157,-2.8157,0,0,-2.7828,-2.7878,-2.7885,-2.7903,-2.7942,-2.7966,-2.7997,-2.8033,-2.805,-2.8079,-2.8106,-2.8151,-2.8152,-2.8173,-2.8186,-2.8206,-2.8233,-2.8204,-2.8205,-2.8208,-2.8276,-2.8275,-2.828,-2.8237,-2.8238,-2.8239,-2.8273,0,-2.7858,-2.7914,-2.7932,-2.7978,-2.8007,-2.8019,-2.8047,-2.8074,-2.8092,-2.8119,-2.8139,-2.8171,-2.817,-2.8182,-2.8203,-2.8225,-2.8246,-2.8223,-2.8262,-2.8264,-2.8253,-2.8286,-2.8285,-2.8316,-2.8278,-2.8279,-2.8279,0,-2.7901,-2.793,-2.7979,-2.8014,-2.8027,-2.8051,-2.8085,-2.8111,-2.8142,-2.8154,-2.8178,-2.819,-2.8224,-2.8215,-2.8263,-2.8246,-2.8264,-2.8277,-2.8279,-2.8282,-2.8272,-2.829,-2.8326,-2.8331,-2.8287,-2.8286,-2.8286,0,-2.7912,-2.7963,-2.7999,-2.8015,-2.8057,-2.8073,-2.8092,-2.8122,-2.8142,-2.8173,-2.8186,-2.822,-2.8238,-2.8265,-2.8286,-2.8278,-2.8331,-2.8324,-2.8342,-2.8341,-2.8351,-2.835,-2.839,-2.8364,-2.8364,-2.8364,-2.8364,0,-2.7943,-2.7973,-2.8005,-2.8027,-2.806,-2.8081,-2.8114,-2.8133,-2.816,-2.8187,-2.8201,-2.8225,-2.8252,-2.828,-2.8297,-2.8333,-2.8342,-2.8352,-2.8356,-2.8351,-2.8349,-2.8362,-2.836,-2.8365,-2.8365,-2.8365,-2.8364,0,-2.7961,-2.7983,-2.8023,-2.806,-2.807,-2.8093,-2.8124,-2.8147,-2.8165,-2.8199,-2.8208,-2.8238,-2.8272,-2.8295,-2.8339,-2.8351,-2.839,-2.8394,-2.8379,-2.8381,-2.8397,-2.8395,-2.8445,-2.8453,-2.8422,-2.8422,-2.8423,0,-2.7979,-2.8002,-2.8041,-2.8059,-2.8078,-2.8107,-2.8128,-2.815,-2.8171,-2.8208,-2.8226,-2.8261,-2.829,-2.8344,-2.837,-2.8404,-2.8409,-2.8424,-2.8414,-2.8408,-2.8408,-2.8406,-2.8409,-2.8425,-2.8426,-2.8426,-2.8426,0,-2.8009,-2.8019,-2.8048,-2.8081,-2.8105,-2.8132,-2.816,-2.8174,-2.8201,-2.8224,-2.8259,-2.8282,-2.8326,-2.8361,-2.8398,-2.8417,-2.8426,-2.8429,-2.8435,-2.8429,-2.8419,-2.8424,-2.8383,-2.8428,-2.8428,-2.8427,-2.8427,-2.8427,-2.8028,-2.8049,-2.8079,-2.8111,-2.8134,-2.8159,-2.8182,-2.8203,-2.8232,-2.827,-2.8282,-2.8318,-2.8349,-2.8399,-2.8419,-2.8448,-2.8447,-2.8455,-2.8458,-2.8459,-2.8459,-2.8415,-2.8455,-2.8455,-2.8455,-2.8455,-2.8455,0,-2.8058,-2.8079,-2.8108,-2.8145,-2.817,-2.8176,-2.8207,-2.8228,-2.8259,-2.8287,-2.8316,-2.8356,-2.839,-2.8418,-2.8454,-2.8471,-2.8476,-2.848,-2.8478,-2.8483,-2.8458,-2.8449,-2.8475,-2.8475,-2.8475,-2.8475,-2.8475,-2.8475,-2.8077,-2.8113,-2.8127,-2.8174,-2.8194,-2.8229,-2.8246,-2.827,-2.8292,-2.8336,-2.8364,-2.8382,-2.8411,-2.8448,-2.848,-2.8488,-2.85,-2.8502,-2.8511,-2.8487,-2.8485,-2.8482,-2.8474,-2.8505,-2.8505,-2.8533,-2.8533,-2.8534]},{"header":{"parameterUnit":"m.s-1","parameterCategory":1,"la1":30.2991,"la2":30.254,"lo1":-89.0895,"lo2":-89.0444,"dy":0.0017,"dx":0.0017,"nx":28,"ny":28,"refTime":"2025-04-18T21:00:00:Z","depth":0,"parameterNumber":3,"parameterNumberName":"V-component_of_WINDS"},"data":[0,0,0,0,0,0,0,0,0,0,0,0,0,0,0,0,0,0,0,0,0,0,0,0,0,0,0,0,0,0,0,0,0,0,0,0,0,0,0,0,0,0,0,0,0,0,0,0,0,0,0,0,0,0,0,0,0,0,6.2681,6.2681,0,6.2692,6.2693,6.2693,6.2664,6.2664,6.2663,6.2662,6.2672,6.2673,6.2674,0,0,0,0,0,0,0,0,0,0,0,0,0,6.2634,6.2635,6.2681,6.2681,6.2681,6.2692,6.2693,6.2693,6.2665,6.2663,6.2662,6.2661,6.2671,6.2672,6.2674,0,0,0,0,0,0,0,0,0,0,0,0,0,6.2651,6.2636,6.2681,6.2669,6.2668,6.2692,6.2693,6.2693,6.2665,6.2663,6.2662,6.2661,6.2671,6.2672,6.2674,6.2711,0,0,6.2679,6.268,0,0,0,0,0,0,0,0,6.265,6.2653,6.267,6.267,6.2669,6.2676,6.268,6.2699,6.2665,6.2666,6.2662,6.266,6.2674,6.2675,6.268,6.2711,6.2711,6.2679,6.268,6.2681,6.2681,0,0,0,0,0,0,0,6.2649,6.2652,6.2685,6.2671,6.267,6.2662,6.2663,6.2683,6.2677,6.2666,6.2664,6.2665,6.2673,6.2679,6.268,6.2712,6.2679,6.268,6.2681,6.2682,6.2775,6.2777,0,0,0,0,0,0,6.265,6.2651,6.2685,6.2686,6.2656,6.2664,6.2665,6.2675,6.2677,6.2676,6.2667,6.2664,6.2677,6.2678,6.268,6.2725,6.2681,6.2682,6.2683,6.2774,6.2776,6.2777,0,0,0,0,0,0,6.2649,6.2653,6.2685,6.2668,6.2672,6.2667,6.2677,6.2676,6.2681,6.2678,6.2676,6.2673,6.2676,6.2678,6.2704,6.2725,6.2683,6.2684,6.2772,6.2774,6.2777,6.2813,0,0,0,0,0,0,6.2648,6.2653,6.2667,6.2669,6.2673,6.2708,6.2679,6.2677,6.2684,6.2681,6.2684,6.2683,6.2675,6.2702,6.2706,6.2726,6.2686,6.277,6.2773,6.2776,6.281,6.2817,6.2822,0,0,0,0,0,6.2646,6.2675,6.2667,6.2672,6.269,6.2709,6.2712,6.2702,6.2686,6.27,6.2698,6.2683,6.2722,6.2705,6.2709,6.273,6.2769,6.2772,6.2776,6.2808,6.2815,6.2822,0,0,0,0,0,0,6.2674,6.2675,6.2666,6.2698,6.2704,6.2705,6.2722,6.271,6.2721,6.2717,6.2705,6.2706,6.2734,6.2735,6.2715,6.2767,6.2743,6.2747,6.2766,6.2773,6.2779,6.2778,6.2687,0,0,0,0,0,6.2685,6.2701,6.2701,6.2728,6.2732,6.2727,6.2735,6.2727,6.2733,6.2735,6.2735,6.2741,6.2754,6.2763,6.2776,6.281,6.2811,6.2827,6.2833,6.2838,6.2842,6.2862,6.287,6.2788,6.2788,6.2788,0,0,6.2705,6.2708,6.2718,6.2734,6.2738,6.2755,6.2729,6.2747,6.276,6.2738,6.2763,6.2763,6.2768,6.2799,6.2813,6.2801,6.2865,6.2842,6.2846,6.2848,6.2866,6.2874,6.2881,6.2791,6.279,6.279,0,0,6.2752,6.2755,6.2779,6.2785,6.2792,6.2788,6.2794,6.2797,6.2797,6.2822,6.2806,6.2821,6.2845,6.285,6.2856,6.2907,6.2894,6.2912,6.2942,6.2962,6.2968,6.2974,6.2994,6.3001,6.2916,6.2916,6.2916,0,6.2776,6.2802,6.2793,6.2814,6.2822,6.2804,6.2829,6.2834,6.2844,6.285,6.2836,6.2867,6.2869,6.2902,6.2915,6.292,6.2927,6.2911,6.2968,6.2974,6.2979,6.2998,6.3005,6.2918,6.2918,6.2917,6.2917,0,6.2833,6.2851,6.287,6.2882,6.2892,6.2915,6.2909,6.2921,6.2913,6.2911,6.2938,6.294,6.2954,6.2961,6.2953,6.2993,6.2986,6.2971,6.2946,6.2989,6.3006,6.3013,6.2921,6.292,6.292,6.2919,0,0,6.2896,6.2905,6.2912,6.2919,6.2926,6.294,6.2963,6.2977,6.2987,6.2996,6.3015,6.3036,6.3023,6.303,6.3022,6.3039,6.3082,6.3022,6.3022,6.3034,6.3128,6.314,6.3149,6.3073,6.3075,6.3076,6.3128,0,6.2943,6.2983,6.2976,6.3015,6.3033,6.3017,6.3037,6.3044,6.3043,6.3058,6.3057,6.3073,6.3053,6.3058,6.3074,6.3073,6.3101,6.3069,6.3091,6.3092,6.3091,6.3157,6.317,6.3219,6.3135,6.3136,6.3137,0,6.3003,6.3016,6.3056,6.3064,6.3071,6.3089,6.3103,6.3117,6.3125,6.3123,6.3132,6.3122,6.3145,6.3121,6.3152,6.3131,6.314,6.3141,6.3143,6.3145,6.3117,6.3162,6.3234,6.3242,6.3147,6.3146,6.3145,0,6.3047,6.3074,6.3102,6.3108,6.3117,6.313,6.3134,6.3141,6.3151,6.3163,6.3169,6.3183,6.3191,6.3202,6.3197,6.3179,6.323,6.3204,6.323,6.323,6.3241,6.3241,6.3317,6.3246,6.3246,6.3245,6.3245,0,6.31,6.3126,6.3123,6.314,6.3169,6.3162,6.319,6.3192,6.3199,6.3217,6.3204,6.322,6.3212,6.3228,6.3224,6.3252,6.3255,6.3254,6.3253,6.3256,6.3256,6.3262,6.3258,6.3247,6.3247,6.3247,6.3246,0,6.3154,6.3152,6.3183,6.319,6.3192,6.3213,6.3219,6.3235,6.3235,6.3257,6.3262,6.3261,6.328,6.3275,6.3295,6.3292,6.3328,6.3322,6.3326,6.3325,6.3351,6.3349,6.3434,6.3445,6.3366,6.3366,6.3367,0,6.3189,6.3209,6.3218,6.323,6.3236,6.3255,6.3265,6.3259,6.3271,6.3283,6.3299,6.3316,6.3331,6.3361,6.3362,6.3377,6.3372,6.3401,6.3374,6.3377,6.3374,6.3373,6.3376,6.3406,6.3407,6.3408,6.3408,0,6.3251,6.325,6.3266,6.3284,6.3297,6.331,6.3321,6.3331,6.3326,6.334,6.336,6.3371,6.3393,6.3411,6.3426,6.343,6.3419,6.3417,6.3424,6.3427,6.343,6.343,6.3341,6.3415,6.3414,6.3414,6.3413,6.3413,6.3297,6.3315,6.3325,6.3345,6.3353,6.3365,6.3382,6.3384,6.3401,6.3419,6.3414,6.3437,6.3446,6.3465,6.3471,6.3489,6.3478,6.3488,6.349,6.3493,6.3497,6.3426,6.3492,6.3491,6.3491,6.3491,6.3491,0,6.336,6.3366,6.3384,6.3402,6.3418,6.3407,6.342,6.3433,6.3454,6.3464,6.3479,6.3503,6.3521,6.3524,6.3541,6.3555,6.355,6.356,6.3559,6.356,6.3505,6.3498,6.3563,6.3563,6.3563,6.3563,6.3563,6.3563,6.3394,6.3425,6.3425,6.346,6.3466,6.349,6.3498,6.3509,6.3517,6.3545,6.3561,6.3563,6.357,6.3589,6.3605,6.3605,6.3613,6.3624,6.3623,6.3571,6.3564,6.3557,6.355,6.3626,6.3626,6.3677,6.3677,6.3678]}]]